| time (UTC) | temp F | wind direction | speed knots | gust knots | rain 1hr in | rain 24hr in | rain mn in | humidity % | barometer mb |
| 20260505152957 | 58 | 313 | 1.7 | 5.2 | 0.00 | 0.15 | 0.15 | 82 | 1008.2 |
| 20260505152454 | 58 | 353 | 3.5 | 6.1 | 0.00 | 0.15 | 0.15 | 82 | 1007.9 |
| 20260505151949 | 58 | 293 | 4.3 | 6.1 | 0.00 | 0.15 | 0.15 | 82 | 1008.0 |
| 20260505151445 | 59 | 333 | 2.6 | 4.3 | 0.00 | 0.15 | 0.15 | 82 | 1007.6 |
| 20260505150942 | 59 | 338 | 2.6 | 5.2 | 0.00 | 0.15 | 0.15 | 82 | 1007.7 |
| 20260505150439 | 59 | 55 | 1.7 | 4.3 | 0.00 | 0.15 | 0.15 | 83 | 1007.3 |
| 20260505140409 | 56 | 166 | 0.9 | 1.7 | 0.00 | 0.15 | 0.15 | 87 | 1007.9 |
| 20260505124823 | 57 | 43 | 1.7 | 2.6 | 0.00 | 0.15 | 0.15 | 90 | 1007.3 |
| 20260505124320 | 58 | 139 | 0.9 | 0.9 | 0.00 | 0.15 | 0.15 | 91 | 1007.5 |
| 20260505123816 | 58 | 10 | 2.6 | 2.6 | 0.00 | 0.15 | 0.15 | 92 | 1007.0 |
| 20260505123313 | 57 | 182 | 0.0 | 4.3 | 0.00 | 0.15 | 0.15 | 93 | 1007.3 |
| 20260505122809 | 57 | 330 | 1.7 | 2.6 | 0.00 | 0.15 | 0.15 | 93 | 1006.9 |
| 20260505122306 | 57 | 12 | 1.7 | 2.6 | 0.00 | 0.15 | 0.15 | 94 | 1007.0 |
| 20260505121802 | 57 | 4 | 0.9 | 4.3 | 0.00 | 0.15 | 0.15 | 95 | 1006.8 |
| 20260505121259 | 58 | 138 | 0.9 | 0.9 | 0.00 | 0.15 | 0.15 | 95 | 1006.6 |
| 20260505120755 | 57 | 351 | 1.7 | 1.7 | 0.00 | 0.15 | 0.15 | 95 | 1006.1 |
| 20260505120252 | 57 | 348 | 2.6 | 2.6 | 0.00 | 0.15 | 0.15 | 94 | 1006.3 |
| 20260505115750 | 57 | 347 | 1.7 | 4.3 | 0.00 | 0.15 | 0.15 | 94 | 1006.8 |
| 20260505115248 | 57 | 93 | 0.9 | 2.6 | 0.00 | 0.15 | 0.15 | 94 | 1006.6 |
| 20260505114745 | 57 | 21 | 0.0 | 0.0 | 0.00 | 0.15 | 0.15 | 95 | 1006.6 |
| 20260505114241 | 57 | 24 | 0.0 | 0.0 | 0.00 | 0.15 | 0.15 | 95 | 1006.5 |
| 20260505113738 | 58 | 25 | 0.0 | 0.0 | 0.00 | 0.15 | 0.15 | 96 | 1006.5 |
| 20260505113235 | 58 | 52 | 0.0 | 0.9 | 0.00 | 0.15 | 0.15 | 96 | 1006.9 |
| 20260505112731 | 58 | 58 | 0.0 | 0.0 | 0.00 | 0.15 | 0.15 | 96 | 1006.8 |
| 20260505112229 | 59 | 306 | 0.0 | 0.0 | 0.00 | 0.15 | 0.15 | 96 | 1006.1 |
| 20260505111728 | 59 | 347 | 0.0 | 0.0 | 0.05 | 0.15 | 0.15 | 96 | 1006.1 |
| 20260505111225 | 59 | 42 | 0.0 | 2.6 | 0.05 | 0.15 | 0.15 | 96 | 1006.2 |
| 20260505110720 | 60 | 173 | 0.0 | 0.0 | 0.00 | 0.14 | 0.14 | 97 | 1005.8 |
| 20260505110218 | 60 | 334 | 0.0 | 1.7 | 0.00 | 0.14 | 0.14 | 97 | 1005.7 |
| 20260505102154 | 60 | 161 | 0.0 | 0.9 | 0.00 | 0.13 | 0.13 | 95 | 1006.2 |
| 20260505101652 | 60 | 168 | 0.0 | 1.7 | 0.07 | 0.13 | 0.13 | 94 | 1006.0 |
| 20260505101148 | 60 | 112 | 0.9 | 1.7 | 0.07 | 0.13 | 0.13 | 94 | 1006.2 |
| 20260505100644 | 60 | 53 | 0.9 | 4.3 | 0.00 | 0.12 | 0.12 | 93 | 1006.1 |
| 20260505100142 | 60 | 138 | 1.7 | 4.3 | 0.00 | 0.12 | 0.12 | 92 | 1006.3 |
| 20260505095637 | 60 | 61 | 2.6 | 2.6 | 0.00 | 0.12 | 0.12 | 92 | 1006.0 |
| 20260505095135 | 60 | 178 | 0.0 | 0.9 | 0.00 | 0.12 | 0.12 | 91 | 1005.6 |
| 20260505094631 | 60 | 187 | 0.0 | 0.9 | 0.00 | 0.12 | 0.12 | 90 | 1005.1 |
| 20260505094127 | 61 | 162 | 0.0 | 1.7 | 0.00 | 0.12 | 0.12 | 89 | 1005.4 |
| 20260505093624 | 61 | 186 | 1.7 | 4.3 | 0.05 | 0.12 | 0.12 | 88 | 1005.2 |
| 20260505093121 | 61 | 181 | 4.3 | 6.1 | 0.05 | 0.12 | 0.12 | 87 | 1005.1 |
| 20260505092618 | 62 | 199 | 2.6 | 4.3 | 0.00 | 0.11 | 0.11 | 85 | 1004.9 |
| 20260505092117 | 62 | 189 | 2.6 | 6.1 | 0.00 | 0.11 | 0.11 | 83 | 1004.8 |
| 20260505091613 | 61 | 160 | 3.5 | 5.2 | 0.00 | 0.11 | 0.11 | 84 | 1004.7 |
| 20260505091111 | 60 | 175 | 1.7 | 5.2 | 0.00 | 0.11 | 0.11 | 88 | 1004.6 |
| 20260505090609 | 61 | 163 | 0.9 | 6.1 | 0.00 | 0.11 | 0.11 | 88 | 1004.5 |
| 20260505090107 | 60 | 203 | 3.5 | 7.8 | 0.00 | 0.11 | 0.11 | 90 | 1003.8 |
| 20260505085604 | 60 | 177 | 4.3 | 7.8 | 0.00 | 0.11 | 0.11 | 92 | 1003.2 |
| 20260505085102 | 59 | 193 | 2.6 | 12.2 | 0.00 | 0.11 | 0.11 | 95 | 1003.6 |
| 20260505084600 | 60 | 177 | 6.1 | 7.8 | 0.07 | 0.11 | 0.11 | 97 | 1003.6 |
| 20260505084058 | 60 | 199 | 2.6 | 6.1 | 0.05 | 0.10 | 0.10 | 97 | 1004.4 |
| 20260505083555 | 60 | 193 | 6.1 | 12.2 | 0.05 | 0.10 | 0.10 | 96 | 1005.1 |
| 20260505083051 | 60 | 176 | 5.2 | 8.7 | 0.07 | 0.09 | 0.09 | 96 | 1005.7 |
| 20260505082547 | 60 | 181 | 3.5 | 4.3 | 0.07 | 0.09 | 0.09 | 96 | 1006.1 |
| 20260505082044 | 61 | 171 | 2.6 | 4.3 | 0.05 | 0.08 | 0.08 | 96 | 1006.0 |
| 20260505081540 | 61 | 165 | 2.6 | 4.3 | 0.07 | 0.07 | 0.07 | 96 | 1006.2 |
| 20260505081038 | 61 | 265 | 3.5 | 7.8 | 0.07 | 0.07 | 0.07 | 96 | 1005.8 |
| 20260505080534 | 61 | 175 | 1.7 | 4.3 | 0.05 | 0.06 | 0.06 | 96 | 1006.0 |
| 20260505080031 | 61 | 320 | 2.6 | 7.0 | 0.12 | 0.06 | 0.06 | 95 | 1006.1 |
| 20260505075527 | 61 | 199 | 2.6 | 8.7 | 0.07 | 0.05 | 0.05 | 95 | 1005.9 |
| 20260505075024 | 61 | 182 | 2.6 | 13.9 | 0.05 | 0.04 | 0.04 | 94 | 1005.9 |
| 20260505074521 | 62 | 255 | 2.6 | 11.3 | 0.07 | 0.03 | 0.03 | 92 | 1005.7 |
| 20260505074018 | 62 | 190 | 5.2 | 7.0 | 0.07 | 0.03 | 0.03 | 91 | 1005.8 |
| 20260505073515 | 62 | 183 | 5.2 | 8.7 | 0.05 | 0.02 | 0.02 | 89 | 1005.8 |
| 20260505073014 | 63 | 176 | 6.1 | 9.6 | 0.05 | 0.02 | 0.02 | 88 | 1006.0 |
| 20260505072509 | 63 | 207 | 1.7 | 4.3 | 0.07 | 0.01 | 0.01 | 85 | 1005.8 |
| 20260505072005 | 64 | 113 | 4.3 | 7.0 | 0.00 | 0.00 | 0.00 | 84 | 1005.6 |
| 20260505071501 | 64 | 185 | 8.7 | 11.3 | 0.00 | 0.00 | 0.00 | 80 | 1005.9 |
| 20260505070959 | 64 | 193 | 5.2 | 8.7 | 0.00 | 0.00 | 0.00 | 80 | 1006.0 |
| 20260505070456 | 65 | 170 | 2.6 | 5.2 | 0.00 | 0.00 | 0.00 | 78 | 1005.9 |
| 20260505065951 | 65 | 199 | 4.3 | 6.1 | 0.00 | 0.00 | 0.00 | 78 | 1005.6 |
| 20260505065448 | 64 | 187 | 0.9 | 2.6 | 0.00 | 0.00 | 0.00 | 78 | 1005.7 |
| 20260505064945 | 65 | 184 | 0.9 | 5.2 | 0.00 | 0.00 | 0.00 | 78 | 1005.6 |
| 20260505064442 | 65 | 183 | 0.9 | 2.6 | 0.00 | 0.00 | 0.00 | 77 | 1005.3 |
| 20260505063940 | 65 | 191 | 2.6 | 6.1 | 0.00 | 0.00 | 0.00 | 77 | 1005.7 |
| 20260505063436 | 65 | 189 | 0.9 | 1.7 | 0.00 | 0.00 | 0.00 | 77 | 1005.9 |
| 20260505062933 | 65 | 163 | 0.9 | 2.6 | 0.00 | 0.00 | 0.00 | 78 | 1005.7 |
| 20260505062430 | 64 | 189 | 3.5 | 4.3 | 0.00 | 0.00 | 0.00 | 78 | 1006.0 |
| 20260505061926 | 64 | 191 | 1.7 | 2.6 | 0.00 | 0.00 | 0.00 | 78 | 1006.1 |
| 20260505061425 | 64 | 187 | 3.5 | 4.3 | 0.00 | 0.00 | 0.00 | 78 | 1005.9 |
| 20260505060922 | 64 | 186 | 2.6 | 4.3 | 0.00 | 0.00 | 0.00 | 77 | 1006.2 |
| 20260505060419 | 64 | 166 | 0.9 | 2.6 | 0.00 | 0.00 | 0.00 | 77 | 1006.1 |
| 20260505055915 | 64 | 178 | 0.0 | 1.7 | 0.00 | 0.00 | 0.00 | 78 | 1006.0 |
| 20260505055412 | 64 | 187 | 1.7 | 4.3 | 0.00 | 0.00 | 0.00 | 77 | 1005.8 |
| 20260505054908 | 64 | 180 | 3.5 | 7.0 | 0.00 | 0.00 | 0.00 | 77 | 1005.9 |
| 20260505054406 | 64 | 174 | 0.0 | 5.2 | 0.00 | 0.00 | 0.00 | 77 | 1005.9 |
| 20260505053904 | 64 | 187 | 0.9 | 1.7 | 0.00 | 0.00 | 0.00 | 77 | 1006.0 |
| 20260505053401 | 64 | 175 | 0.0 | 4.3 | 0.00 | 0.00 | 0.00 | 77 | 1006.2 |
| 20260505052857 | 64 | 168 | 0.9 | 2.6 | 0.00 | 0.00 | 0.00 | 76 | 1006.1 |
| 20260505052354 | 64 | 194 | 0.9 | 1.7 | 0.00 | 0.00 | 0.00 | 77 | 1006.2 |
| 20260505051851 | 64 | 152 | 0.0 | 4.3 | 0.00 | 0.00 | 0.00 | 77 | 1006.0 |
| 20260505051348 | 65 | 139 | 1.7 | 4.3 | 0.00 | 0.00 | 0.00 | 76 | 1005.9 |
| 20260505050847 | 65 | 177 | 0.9 | 6.1 | 0.00 | 0.00 | 0.00 | 76 | 1006.1 |
| 20260505050345 | 65 | 189 | 3.5 | 4.3 | 0.00 | 0.00 | 0.00 | 76 | 1006.2 |
| 20260505041312 | 65 | 169 | 1.7 | 1.7 | 0.00 | 0.00 | 0.00 | 75 | 1006.7 |
| 20260505040809 | 66 | 182 | 0.9 | 1.7 | 0.00 | 0.00 | 0.00 | 74 | 1006.7 |
| 20260505040307 | 66 | 191 | 0.9 | 0.9 | 0.00 | 0.00 | 0.00 | 73 | 1006.9 |
| 20260505035803 | 66 | 181 | 0.9 | 1.7 | 0.00 | 0.00 | 0.00 | 73 | 1007.2 |
| 20260505035259 | 66 | 161 | 2.6 | 4.3 | 0.00 | 0.00 | 0.00 | 72 | 1007.0 |
| 20260505034756 | 66 | 191 | 2.6 | 2.6 | 0.00 | 0.00 | 0.00 | 72 | 1007.2 |
| 20260505034253 | 67 | 182 | 1.7 | 2.6 | 0.00 | 0.00 | 0.00 | 72 | 1007.2 |
| 20260505033749 | 67 | 183 | 0.9 | 1.7 | 0.00 | 0.00 | 0.00 | 72 | 1007.5 |
| 20260505033247 | 67 | 156 | 0.9 | 4.3 | 0.00 | 0.00 | 0.00 | 71 | 1007.2 |
| 20260505032745 | 67 | 191 | 2.6 | 2.6 | 0.00 | 0.00 | 0.00 | 71 | 1007.4 |
| 20260505032241 | 67 | 174 | 1.7 | 4.3 | 0.00 | 0.00 | 0.00 | 71 | 1007.1 |
| 20260505031739 | 67 | 170 | 0.0 | 1.7 | 0.00 | 0.00 | 0.00 | 71 | 1007.2 |
| 20260505031235 | 68 | 160 | 0.9 | 2.6 | 0.00 | 0.00 | 0.00 | 71 | 1007.2 |
| 20260505030732 | 68 | 178 | 1.7 | 5.2 | 0.00 | 0.00 | 0.00 | 71 | 1007.1 |
| 20260505030228 | 68 | 184 | 1.7 | 2.6 | 0.00 | 0.00 | 0.00 | 71 | 1007.3 |
| 20260505025724 | 68 | 187 | 1.7 | 5.2 | 0.00 | 0.00 | 0.00 | 71 | 1007.2 |
| 20260505025222 | 68 | 185 | 0.9 | 4.3 | 0.00 | 0.00 | 0.00 | 71 | 1007.2 |
| 20260505024720 | 68 | 182 | 3.5 | 4.3 | 0.00 | 0.00 | 0.00 | 71 | 1007.1 |
| 20260505024217 | 68 | 179 | 3.5 | 5.2 | 0.00 | 0.00 | 0.00 | 71 | 1007.0 |
| 20260505023714 | 68 | 177 | 0.9 | 2.6 | 0.00 | 0.00 | 0.00 | 71 | 1006.9 |
| 20260505023211 | 68 | 170 | 0.9 | 2.6 | 0.00 | 0.00 | 0.00 | 71 | 1006.9 |
| 20260505022709 | 68 | 180 | 2.6 | 4.3 | 0.00 | 0.00 | 0.00 | 70 | 1006.9 |
| 20260505022205 | 68 | 197 | 1.7 | 4.3 | 0.00 | 0.00 | 0.00 | 71 | 1006.8 |
| 20260505021702 | 68 | 206 | 0.9 | 2.6 | 0.00 | 0.00 | 0.00 | 70 | 1006.7 |
| 20260505021159 | 68 | 179 | 0.9 | 0.9 | 0.00 | 0.00 | 0.00 | 70 | 1006.6 |
| 20260505020655 | 68 | 181 | 0.0 | 1.7 | 0.00 | 0.00 | 0.00 | 69 | 1006.7 |
| 20260505020151 | 69 | 167 | 0.9 | 1.7 | 0.00 | 0.00 | 0.00 | 69 | 1006.5 |
| 20260505015648 | 69 | 180 | 0.9 | 0.9 | 0.00 | 0.00 | 0.00 | 69 | 1006.5 |
| 20260505015144 | 69 | 188 | 0.9 | 1.7 | 0.00 | 0.00 | 0.00 | 68 | 1006.5 |
| 20260505014641 | 69 | 187 | 0.9 | 1.7 | 0.00 | 0.00 | 0.00 | 67 | 1006.6 |
| 20260505014138 | 69 | 185 | 0.0 | 0.0 | 0.00 | 0.00 | 0.00 | 67 | 1006.3 |
| 20260505013636 | 69 | 187 | 0.0 | 0.0 | 0.00 | 0.00 | 0.00 | 66 | 1006.2 |
| 20260505013133 | 69 | 189 | 0.9 | 0.9 | 0.00 | 0.00 | 0.00 | 66 | 1006.0 |
| 20260505012631 | 70 | 179 | 0.0 | 0.0 | 0.00 | 0.00 | 0.00 | 66 | 1006.0 |
| 20260505012128 | 70 | 171 | 0.0 | 0.9 | 0.00 | 0.00 | 0.00 | 65 | 1005.8 |
| 20260505011623 | 70 | 199 | 0.0 | 0.9 | 0.00 | 0.00 | 0.00 | 64 | 1005.9 |
| 20260505011121 | 71 | 183 | 0.0 | 0.9 | 0.00 | 0.00 | 0.00 | 63 | 1006.0 |
| 20260505010616 | 71 | 179 | 0.0 | 0.9 | 0.00 | 0.00 | 0.00 | 63 | 1005.7 |
| 20260505010113 | 71 | 170 | 0.9 | 1.7 | 0.00 | 0.00 | 0.00 | 63 | 1005.8 |
| 20260505005609 | 71 | 175 | 0.0 | 1.7 | 0.00 | 0.00 | 0.00 | 62 | 1005.7 |
| 20260505005107 | 71 | 192 | 0.0 | 0.9 | 0.00 | 0.00 | 0.00 | 62 | 1005.7 |
| 20260505004604 | 72 | 177 | 0.0 | 0.9 | 0.00 | 0.00 | 0.00 | 62 | 1005.6 |
| 20260505004100 | 72 | 182 | 0.9 | 1.7 | 0.00 | 0.00 | 0.00 | 60 | 1005.6 |
| 20260505003557 | 72 | 188 | 0.9 | 1.7 | 0.00 | 0.00 | 0.00 | 60 | 1005.7 |
| 20260505003055 | 73 | 173 | 0.9 | 2.6 | 0.00 | 0.00 | 0.00 | 59 | 1005.7 |
| 20260505002549 | 73 | 210 | 1.7 | 2.6 | 0.00 | 0.00 | 0.00 | 59 | 1005.6 |
| 20260505002043 | 73 | 169 | 1.7 | 1.7 | 0.00 | 0.00 | 0.00 | 58 | 1005.7 |
| 20260505001539 | 73 | 164 | 2.6 | 4.3 | 0.00 | 0.00 | 0.00 | 57 | 1005.2 |
| 20260505001037 | 74 | 194 | 2.6 | 5.2 | 0.00 | 0.00 | 0.00 | 56 | 1005.5 |
| 20260505000534 | 74 | 177 | 5.2 | 6.1 | 0.00 | 0.00 | 0.00 | 56 | 1005.4 |
| 20260505000032 | 74 | 153 | 2.6 | 4.3 | 0.00 | 0.00 | 0.00 | 57 | 1005.4 |
| 20260504235528 | 74 | 197 | 2.6 | 6.1 | 0.00 | 0.00 | 0.00 | 56 | 1005.6 |
| 20260504235025 | 75 | 218 | 2.6 | 6.1 | 0.00 | 0.00 | 0.00 | 56 | 1005.4 |
| 20260504234522 | 75 | 216 | 3.5 | 6.1 | 0.00 | 0.00 | 0.00 | 55 | 1005.5 |
| 20260504234019 | 76 | 175 | 2.6 | 5.2 | 0.00 | 0.00 | 0.00 | 55 | 1005.3 |
| 20260504233514 | 76 | 174 | 2.6 | 6.1 | 0.00 | 0.00 | 0.00 | 53 | 1005.1 |
| 20260504233011 | 77 | 178 | 2.6 | 7.0 | 0.00 | 0.00 | 0.00 | 54 | 1005.4 |
| 20260504232508 | 77 | 195 | 2.6 | 4.3 | 0.00 | 0.00 | 0.00 | 53 | 1005.4 |
| 20260504232006 | 77 | 207 | 5.2 | 11.3 | 0.00 | 0.00 | 0.00 | 52 | 1005.3 |
| 20260504231502 | 78 | 190 | 4.3 | 7.8 | 0.00 | 0.00 | 0.00 | 52 | 1005.4 |
| 20260504230958 | 78 | 199 | 1.7 | 5.2 | 0.00 | 0.00 | 0.00 | 53 | 1005.2 |
| 20260504230455 | 78 | 205 | 2.6 | 4.3 | 0.00 | 0.00 | 0.00 | 52 | 1005.2 |
| 20260504225954 | 78 | 194 | 2.6 | 9.6 | 0.00 | 0.00 | 0.00 | 52 | 1005.2 |
| 20260504225450 | 78 | 217 | 2.6 | 11.3 | 0.00 | 0.00 | 0.00 | 52 | 1005.3 |
| 20260504224947 | 78 | 199 | 3.5 | 4.3 | 0.00 | 0.00 | 0.00 | 52 | 1005.5 |
| 20260504224444 | 78 | 165 | 4.3 | 7.8 | 0.00 | 0.00 | 0.00 | 51 | 1005.4 |
| 20260504223941 | 79 | 177 | 2.6 | 7.8 | 0.00 | 0.00 | 0.00 | 51 | 1005.5 |
| 20260504223437 | 79 | 190 | 6.1 | 11.3 | 0.00 | 0.00 | 0.00 | 52 | 1005.4 |
| 20260504222933 | 79 | 183 | 7.0 | 13.0 | 0.00 | 0.00 | 0.00 | 51 | 1005.5 |
| 20260504222431 | 79 | 180 | 3.5 | 7.8 | 0.00 | 0.00 | 0.00 | 51 | 1005.4 |
| 20260504221928 | 80 | 139 | 7.8 | 13.0 | 0.00 | 0.00 | 0.00 | 50 | 1005.5 |
| 20260504221425 | 79 | 146 | 2.6 | 9.6 | 0.00 | 0.00 | 0.00 | 52 | 1005.4 |
| 20260504220922 | 79 | 205 | 2.6 | 12.2 | 0.00 | 0.00 | 0.00 | 52 | 1005.5 |
| 20260504220418 | 80 | 169 | 2.6 | 5.2 | 0.00 | 0.00 | 0.00 | 51 | 1005.5 |
| 20260504215916 | 79 | 175 | 2.6 | 11.3 | 0.00 | 0.00 | 0.00 | 51 | 1005.4 |
| 20260504215412 | 79 | 189 | 6.1 | 9.6 | 0.00 | 0.00 | 0.00 | 52 | 1005.4 |
| 20260504214908 | 79 | 182 | 4.3 | 7.0 | 0.00 | 0.00 | 0.00 | 53 | 1005.6 |
| 20260504214405 | 79 | 173 | 5.2 | 7.8 | 0.00 | 0.00 | 0.00 | 52 | 1005.7 |
| 20260504213902 | 79 | 194 | 4.3 | 8.7 | 0.00 | 0.00 | 0.00 | 52 | 1005.5 |
| 20260504213358 | 79 | 215 | 3.5 | 6.1 | 0.00 | 0.00 | 0.00 | 52 | 1005.6 |
| 20260504212856 | 79 | 169 | 6.1 | 7.0 | 0.00 | 0.00 | 0.00 | 52 | 1005.6 |
| 20260504212352 | 78 | 191 | 5.2 | 12.2 | 0.00 | 0.00 | 0.00 | 53 | 1005.9 |
| 20260504211850 | 78 | 136 | 2.6 | 15.6 | 0.00 | 0.00 | 0.00 | 52 | 1005.8 |
| 20260504211345 | 79 | 200 | 4.3 | 9.6 | 0.00 | 0.00 | 0.00 | 52 | 1005.6 |
| 20260504210843 | 79 | 156 | 6.1 | 8.7 | 0.00 | 0.00 | 0.00 | 51 | 1005.9 |
| 20260504210340 | 78 | 157 | 4.3 | 9.6 | 0.00 | 0.00 | 0.00 | 53 | 1005.7 |
| 20260504205837 | 78 | 187 | 4.3 | 11.3 | 0.00 | 0.00 | 0.00 | 51 | 1005.9 |
| 20260504205334 | 80 | 191 | 5.2 | 8.7 | 0.00 | 0.00 | 0.00 | 51 | 1006.1 |
| 20260504204832 | 79 | 22 | 3.5 | 8.7 | 0.00 | 0.00 | 0.00 | 53 | 1005.8 |
| 20260504204331 | 79 | 188 | 4.3 | 8.7 | 0.00 | 0.00 | 0.00 | 52 | 1006.1 |
| 20260504203830 | 80 | 302 | 4.3 | 13.0 | 0.00 | 0.00 | 0.00 | 50 | 1006.1 |
| 20260504203326 | 80 | 184 | 1.7 | 11.3 | 0.00 | 0.00 | 0.00 | 52 | 1006.3 |
| 20260504202822 | 80 | 197 | 4.3 | 5.2 | 0.00 | 0.00 | 0.00 | 54 | 1006.3 |
| 20260504202320 | 80 | 161 | 5.2 | 12.2 | 0.00 | 0.00 | 0.00 | 51 | 1006.7 |
| 20260504201816 | 80 | 183 | 2.6 | 11.3 | 0.00 | 0.00 | 0.00 | 52 | 1006.6 |
| 20260504201313 | 80 | 203 | 7.8 | 12.2 | 0.00 | 0.00 | 0.00 | 51 | 1006.6 |
| 20260504200811 | 80 | 188 | 7.8 | 12.2 | 0.00 | 0.00 | 0.00 | 51 | 1006.6 |
| 20260504200307 | 79 | 181 | 5.2 | 9.6 | 0.00 | 0.00 | 0.00 | 50 | 1006.9 |
| 20260504195803 | 79 | 210 | 4.3 | 12.2 | 0.00 | 0.00 | 0.00 | 51 | 1006.9 |
| 20260504195259 | 79 | 177 | 5.2 | 7.8 | 0.00 | 0.00 | 0.00 | 51 | 1007.0 |
| 20260504194756 | 79 | 189 | 7.8 | 12.2 | 0.00 | 0.00 | 0.00 | 51 | 1007.0 |
| 20260504194252 | 79 | 189 | 1.7 | 6.1 | 0.00 | 0.00 | 0.00 | 52 | 1006.8 |
| 20260504193748 | 78 | 91 | 2.6 | 9.6 | 0.00 | 0.00 | 0.00 | 51 | 1007.0 |
| 20260504193246 | 79 | 225 | 6.1 | 7.8 | 0.00 | 0.00 | 0.00 | 52 | 1006.9 |
| 20260504192744 | 80 | 210 | 3.5 | 8.7 | 0.00 | 0.00 | 0.00 | 54 | 1006.9 |
| 20260504192242 | 78 | 181 | 7.0 | 11.3 | 0.00 | 0.00 | 0.00 | 52 | 1006.7 |
| 20260504191741 | 79 | 212 | 9.6 | 12.2 | 0.00 | 0.00 | 0.00 | 52 | 1007.0 |
| 20260504191237 | 78 | 190 | 4.3 | 7.8 | 0.00 | 0.00 | 0.00 | 54 | 1006.9 |
| 20260504190732 | 78 | 189 | 3.5 | 7.8 | 0.00 | 0.00 | 0.00 | 54 | 1007.0 |
| 20260504190229 | 78 | 214 | 4.3 | 13.0 | 0.00 | 0.00 | 0.00 | 54 | 1007.0 |
| 20260504185726 | 78 | 229 | 5.2 | 12.2 | 0.00 | 0.00 | 0.00 | 53 | 1007.1 |
| 20260504185223 | 78 | 172 | 7.8 | 12.2 | 0.00 | 0.00 | 0.00 | 53 | 1007.1 |
| 20260504184719 | 78 | 193 | 4.3 | 11.3 | 0.00 | 0.00 | 0.00 | 54 | 1007.3 |
| 20260504184215 | 78 | 203 | 5.2 | 9.6 | 0.00 | 0.00 | 0.00 | 56 | 1007.1 |
| 20260504183711 | 78 | 150 | 5.2 | 12.2 | 0.00 | 0.00 | 0.00 | 55 | 1007.0 |
| 20260504183209 | 78 | 167 | 6.1 | 11.3 | 0.00 | 0.00 | 0.00 | 53 | 1007.2 |
| 20260504182707 | 78 | 209 | 6.1 | 13.9 | 0.00 | 0.00 | 0.00 | 54 | 1007.2 |
| 20260504182203 | 79 | 155 | 2.6 | 6.1 | 0.00 | 0.00 | 0.00 | 54 | 1007.2 |
| 20260504181700 | 78 | 307 | 6.1 | 9.6 | 0.00 | 0.00 | 0.00 | 52 | 1007.1 |
| 20260504181158 | 77 | 159 | 2.6 | 6.1 | 0.00 | 0.00 | 0.00 | 54 | 1007.1 |
| 20260504180657 | 77 | 175 | 12.2 | 14.8 | 0.00 | 0.00 | 0.00 | 52 | 1007.3 |
| 20260504180155 | 78 | 177 | 7.0 | 9.6 | 0.00 | 0.00 | 0.00 | 53 | 1007.2 |
| 20260504175652 | 77 | 150 | 7.8 | 12.2 | 0.00 | 0.00 | 0.00 | 53 | 1007.2 |
| 20260504175148 | 77 | 154 | 5.2 | 12.2 | 0.00 | 0.00 | 0.00 | 55 | 1007.2 |
| 20260504174647 | 77 | 173 | 8.7 | 13.0 | 0.00 | 0.00 | 0.00 | 53 | 1007.4 |
| 20260504174143 | 77 | 207 | 7.0 | 12.2 | 0.00 | 0.00 | 0.00 | 53 | 1007.5 |
| 20260504173640 | 77 | 74 | 2.6 | 15.6 | 0.00 | 0.00 | 0.00 | 53 | 1007.6 |
| 20260504173138 | 77 | 171 | 3.5 | 8.7 | 0.00 | 0.00 | 0.00 | 53 | 1007.3 |
| 20260504172634 | 77 | 191 | 5.2 | 9.6 | 0.00 | 0.00 | 0.00 | 54 | 1007.5 |
| 20260504172131 | 75 | 169 | 7.0 | 11.3 | 0.00 | 0.00 | 0.00 | 54 | 1007.5 |
| 20260504171627 | 76 | 125 | 6.1 | 13.9 | 0.00 | 0.00 | 0.00 | 54 | 1007.8 |
| 20260504171124 | 76 | 199 | 4.3 | 7.0 | 0.00 | 0.00 | 0.00 | 56 | 1007.8 |
| 20260504170620 | 76 | 132 | 4.3 | 13.0 | 0.00 | 0.00 | 0.00 | 55 | 1007.8 |
| 20260504170118 | 76 | 200 | 10.4 | 14.8 | 0.00 | 0.00 | 0.00 | 53 | 1007.8 |